This demonstration page uses our WeatherBlox Daily Observations layout. Learn more.

38.88101, -77.10428

Hourly Observations for October 24, 2016

Temp ( °F °C ) Dew Point ( °F °C ) Humidity (%) Winds ( mph kmh ) Pressure ( in mb ) Visibility ( mi km ) Precip ( " mm )
12:52 am 00:52 Mostly Clear 58 14.4 46 7.8 65 65 SSW 10 17 29.94 1014 10 16.09344 0 0
1:52 am 01:52 Mostly Clear 57 13.9 46 7.8 67 67 SSW 9 15 29.91 1013 10 16.09344 0 0
2:52 am 02:52 Mostly Clear 57 13.9 46 7.8 67 67 SSW 10 17 29.91 1013 10 16.09344 0 0
3:52 am 03:52 Mostly Clear 56 13.3 46 7.8 70 70 SW 13 20 29.91 1013 10 16.09344 0 0
4:52 am 04:52 Mostly Clear 55 12.8 45 7.2 69 69 SW 7 11 29.91 1013 10 16.09344 0 0
5:52 am 05:52 Mostly Clear 54 12.2 46 7.8 75 75 SW 6 9 29.94 1014 10 16.09344 0 0
6:52 am 06:52 Mostly Clear 54 12.2 46 7.8 75 75 SW 10 17 29.97 1015 10 16.09344 0 0
7:52 am 07:52 Partly Cloudy 56 13.3 46 7.8 70 70 W 3 6 30 1016 10 16.09344 0 0
8:52 am 08:52 Partly Cloudy 59 15 49 9.4 69 69 SSE 5 7 30.03 1017 10 16.09344 0 0
9:52 am 09:52 Partly Cloudy 65 18.3 48 8.9 54 54 N 5 7 30.03 1017 10 16.09344 0 0
10:52 am 10:52 Cloudy 65 18.3 48 8.9 54 54 NW 7 11 30.06 1018 10 16.09344 0 0
11:52 am 11:52 Partly Cloudy 69 20.6 48 8.9 47 47 N 13 20 30.06 1018 10 16.09344 0 0
12:52 pm 12:52 Mostly Cloudy 70 21.1 48 8.9 46 46 NNW 13 20 30.03 1017 10 16.09344 0 0
1:52 pm 13:52 Mostly Cloudy 70 21.1 48 8.9 46 46 N 16 26 30.03 1017 10 16.09344 0 0
2:52 pm 14:52 Mostly Cloudy 70 21.1 44 6.7 39 39 NW 16 26 30.03 1017 10 16.09344 0 0
3:52 pm 15:52 Partly Cloudy 70 21.1 44 6.7 39 39 NW 15 24 30.03 1017 10 16.09344 0 0
4:52 pm 16:52 Partly Cloudy 69 20.6 41 5 36 36 WNW 18 30 30.06 1018 10 16.09344 0 0
5:52 pm 17:52 Mostly Sunny 66 18.9 40 4.4 39 39 NW 20 31 30.09 1019 10 16.09344 0 0
6:52 pm 18:52 Mostly Clear 63 17.2 38 3.3 40 40 NNW 14 22 30.12 1020 10 16.09344 0 0
7:52 pm 19:52 Clear 61 16.1 35 1.7 38 38 NW 17 28 30.18 1022 10 16.09344 0 0
8:52 pm 20:52 Clear 59 15 33 0.6 38 38 NW 17 28 30.21 1023 10 16.09344 0 0
9:52 pm 21:52 Clear 57 13.9 33 0.6 41 41 NW 12 19 30.21 1023 10 16.09344 0 0
10:52 pm 22:52 Clear 55 12.8 33 0.6 44 44 NW 7 11 30.24 1024 10 16.09344 0 0
11:52 pm 23:52 Clear 53 11.7 34 1.1 48 48 NNW 9 15 30.27 1025 10 16.09344 0 0

Powered by AerisWeather